Location: Hawks Ness
(60.2333°N, 1.1667°W)
Time: 10:30:51
(UTC+00:00)

Cosmos 614 Rocket - Pass Details

Date: 22 October 2019
Orbit: 734 x 763 km, 74.1° (Epoch: 21 November)

Event Time Altitude Azimuth Distance (km) Brightness Sun altitude
Exits shadow 05:33:29 - 235° (SW) 2,426 6.1 -11.4°
Reaches altitude 10° 05:33:50 10° 236° (SW) 2,296 6.0 -11.4°
Maximum altitude 05:38:55 52° 313° (NW) 943 4.2 -10.8°
Drops below altitude 10° 05:44:00 10° 30° (NNE) 2,292 6.8 -10.1°
Sets 05:46:26 0° 35° (NE) 3,215 7.7 -9.8°
